FW3095 Weather Reports


Display with metric or nautical units.
time (UTC)temp
F
wind
direction
speed
MPH
gust
MPH
rain 1hr
in
rain 24hr
in
rain mn
in
humidity
%
barometer
mb
20260902214512 92 224 2.0 9.0 0.00 0.00 0.00 72 986.4
20260902213009 92 261 4.0 10.0 0.00 0.00 0.00 71 986.3
20260902211507 92 240 4.0 11.0 0.00 0.00 0.00 71 986.5
20260902210008 92 236 4.0 12.0 0.00 0.00 0.00 70 986.5
20260902204507 92 219 3.0 11.0 0.00 0.00 0.00 70 986.6
20260902203004 92 227 3.0 9.0 0.00 0.00 0.00 71 986.7
20260902201504 93 231 4.0 9.0 0.00 0.00 0.00 70 986.7
20260902200059 93 219 6.0 12.0 0.00 0.00 0.00 68 986.8
20260902194556 93 191 2.0 8.0 0.00 0.00 0.00 68 987.1
20260902193104 93 212 1.0 8.0 0.00 0.00 0.00 70 987.3
20260902191601 93 199 2.0 11.0 0.00 0.00 0.00 70 987.3
20260902190046 93 214 2.0 6.0 0.00 0.00 0.00 71 987.5
20260902184545 92 207 3.0 9.0 0.00 0.00 0.00 71 987.3
20260902183042 93 226 2.0 6.0 0.00 0.00 0.00 71 987.3
20260902181537 92 237 3.0 8.0 0.00 0.00 0.00 68 987.6
20260902180035 92 240 3.0 7.0 0.00 0.00 0.00 72 987.7
20260902174534 93 250 3.0 6.0 0.00 0.00 0.00 72 987.8
20260902173031 92 245 1.0 9.0 0.00 0.00 0.00 74 987.9
20260902171529 91 214 3.0 6.0 0.00 0.00 0.00 71 988.0
20260902170023 90 240 2.0 7.0 0.00 0.00 0.00 74 988.1
20260902164525 90 267 3.0 7.0 0.00 0.00 0.00 72 988.1
20260902163024 90 206 2.0 10.0 0.00 0.00 0.00 73 988.2
20260902161523 90 230 3.0 7.0 0.00 0.00 0.00 74 988.3
20260902160017 89 219 3.0 7.0 0.00 0.00 0.00 74 988.3
20260902154520 88 231 3.0 7.0 0.00 0.00 0.00 74 988.3
20260902153036 87 241 3.0 11.0 0.00 0.00 0.00 78 988.4
20260902151510 87 214 5.0 8.0 0.00 0.00 0.00 76 988.4
20260902150008 86 222 4.0 9.0 0.00 0.00 0.00 79 988.4
20260902144505 85 226 4.0 9.0 0.00 0.00 0.00 80 988.3
20260902143002 85 246 3.0 6.0 0.00 0.00 0.00 80 988.6
20260902141600 84 219 4.0 6.0 0.00 0.00 0.00 81 988.4
20260902140056 83 229 3.0 6.0 0.00 0.00 0.00 83 988.5
20260902134556 81 250 2.0 7.0 0.00 0.00 0.00 84 988.5
20260902133049 80 236 2.0 5.0 0.00 0.00 0.00 87 988.7
20260902131546 79 229 1.0 6.0 0.00 0.00 0.00 88 988.9
20260902130043 79 245 3.0 6.0 0.00 0.00 0.00 88 989.1
20260902124541 78 231 2.0 7.0 0.00 0.00 0.00 88 988.9
20260902123050 78 238 1.0 5.0 0.00 0.00 0.00 89 988.8
20260902121536 76 233 0.0 0.0 0.00 0.00 0.00 92 988.9
20260902120032 75 233 1.0 3.0 0.00 0.00 0.00 92 989.0
20260902114530 0 0.0 0.0 0.00 0.00 0.00 988.8
20260902113034 0 0.0 0.0 0.00 0.00 0.00 988.8
20260902111521 0 0.0 0.0 0.00 0.00 0.00 988.7
20260902110027 0 0.0 0.0 0.00 0.00 0.00 988.7
20260902104513 0 224 1.0 3.0 0.00 0.00 0.00 988.4
20260902103011 73 240 0.0 2.0 0.00 0.00 0.00 94 988.2
20260902101509 73 237 0.0 3.0 0.00 0.00 0.00 95 988.2
20260902100006 72 224 0.0 2.0 0.00 0.00 0.00 96 988.0
20260902094505 72 224 0.0 1.0 0.00 0.00 0.00 96 987.9
20260902093005 71 218 0.0 2.0 0.00 0.00 0.00 99 987.9
20260902091505 71 198 0.0 0.0 0.00 0.00 0.00 97 987.9
20260902090001 71 198 0.0 0.0 0.00 0.00 0.00 97 987.8
20260902084602 71 198 0.0 0.0 0.00 0.00 0.00 97 987.8
20260902083100 72 198 0.0 0.0 0.00 0.00 0.00 96 987.6
20260902081559 73 198 0.0 0.0 0.00 0.00 0.00 97 987.8
20260902080059 72 198 0.0 0.0 0.00 0.00 0.00 98 987.8
20260902074604 72 198 0.0 1.0 0.00 0.00 0.00 99 987.6
20260902073059 72 198 0.0 0.0 0.00 0.00 0.00 99 987.6
20260902071556 72 198 0.0 0.0 0.00 0.00 0.00 99 987.7
20260902070055 71 198 0.0 0.0 0.00 0.00 0.00 98 987.7
20260902064554 72 198 0.0 0.0 0.00 0.00 0.00 98 987.7
20260902063052 73 198 0.0 0.0 0.00 0.00 0.00 98 987.7
20260902061601 73 198 0.0 0.0 0.00 0.00 0.00 98 987.8
20260902060058 73 198 0.0 0.0 0.00 0.00 0.00 99 987.8
20260902054608 73 198 0.0 0.0 0.00 0.00 0.00 98 987.9
20260902053100 73 198 0.0 0.0 0.00 0.00 0.00 98 987.8
20260902051547 73 198 0.0 0.0 0.00 0.00 0.00 98 987.8
20260902050046 73 269 0.0 0.0 0.00 0.00 0.00 98 987.8
20260902044544 74 269 0.0 0.0 0.00 0.00 0.00 97 987.7
20260902043045 74 269 0.0 0.0 0.00 0.00 0.00 98 987.8
20260902041540 75 269 0.0 0.0 0.00 0.00 0.00 97 987.7
20260902040046 75 269 0.0 0.0 0.00 0.00 0.00 97 987.7
20260902034538 75 269 0.0 0.0 0.00 0.00 0.00 96 987.7
20260902033036 76 269 0.0 0.0 0.00 0.00 0.00 97 987.6
20260902031540 76 269 0.0 0.0 0.00 0.00 0.00 96 987.7
20260902030034 76 269 0.0 0.0 0.00 0.00 0.00 96 987.8
20260902024538 77 269 0.0 0.0 0.00 0.00 0.00 95 987.8
20260902023036 77 269 0.0 0.0 0.00 0.00 0.00 95 987.8
20260902021532 78 269 0.0 0.0 0.00 0.00 0.00 94 987.7
20260902020031 78 269 0.0 0.0 0.00 0.00 0.00 93 987.7
20260902014531 79 269 0.0 0.0 0.00 0.00 0.00 92 987.7
20260902013030 79 269 0.0 0.0 0.00 0.00 0.00 92 987.6
20260902011533 79 269 0.0 0.0 0.00 0.00 0.00 91 987.5
20260902010032 80 269 0.0 0.0 0.00 0.00 0.00 89 987.2
20260902004529 81 269 0.0 0.0 0.00 0.00 0.00 87 987.2
20260902003031 83 269 0.0 0.0 0.00 0.00 0.00 85 987.0
20260902001536 86 269 0.0 0.0 0.00 0.00 0.00 81 987.1
20260902000034 89 269 0.0 0.0 0.00 0.00 0.00 78 987.2
20260901234526 90 269 0.0 0.0 0.00 0.00 0.00 78 987.3
20260901233026 90 269 0.0 0.0 0.00 0.00 0.00 77 987.3
20260901231526 91 269 1.0 3.0 0.00 0.00 0.00 75 987.3
20260901230025 91 269 1.0 2.0 0.00 0.00 0.00 74 987.3
20260901224525 92 232 1.0 4.0 0.00 0.00 0.00 74 987.4
20260901223024 92 259 1.0 5.0 0.00 0.00 0.00 73 987.3
20260901221521 93 229 0.0 4.0 0.00 0.00 0.00 73 987.2
20260901220020 92 268 2.0 4.0 0.00 0.00 0.00 72 987.3